Terminal Aerodrome Forecast
Issued by NWS Atlanta, GA

Home | Current Version | Previous Version | Text Only | Print | Product List | Glossary On
Versions: 1 2 3 4 5 6 7 8 9 10 11 12 13 14 15 16 17 18 19 20 21 22 23 24 25 26 27 28 29 30 31
125
FTAK31 PAJN 250548 AAA
TAFAHN
TAF AMD
PAHN 250548Z 2506/2606 10008KT P6SM VCSH SCT035 OVC060
      TEMPO 2506/2510 VRB04KT -SHRA BKN025 OVC050
     FM251800 VRB04KT P6SM SCT060 BKN080
      AMD LTD TO CLD VIS AND WIND=

USA.gov is the U.S. government's official web portal to all federal, state and local government web resources and services.